User: anonymous   Login
Location: Caltech
(34.1382°N, 118.1253°W)
Time: 07:31:11
(UTC-07:00)
Language:

Oscar 10/S400 - Orbit

View from above orbital plane
View from above orbital plane
View from above satellite
View from above satellite

Ground track
Ground track

The orbit data is extracted from the following two-line orbital elements,

1 14129U 83058B   15245.07397095 +.00000123 +00000-0 +00000-0 0  9994
2 14129 025.9917 140.0631 6068905 128.8239 001.5045 02.05867915214357
Epoch (UTC): 02 September 2015 01:46:31
Eccentricity: 0.6068905
inclination: 25.9917°
perigee height: 3883 km
apogee height: 35565 km
right ascension of ascending node: 140.0631°
argument of perigee: 128.8239°
revolutions per day: 2.05867915
mean anomaly at epoch: 1.5045°
orbit number at epoch: 21435

The dashed part of the orbit path shows where the satellite is in the earth's shadow,  

DLR